Flag for U.S.A. Weather past 2 weeks in Anchorage, Alaska, U.S.A.

Now
51 °F

Sunny.


Feels Like: 51 °F
Forecast: 51 / 66 °F
Wind: No wind

Location: Lake Hood Seaplane

Current Time: May 30, 2015 at 6:50:27 AM

Latest Report: May 30, 2015 at 5:53 AM


Visibility: 8 mi

Pressure: 30.14 "Hg

Humidity: 74%

Dew point: 43 °F

Location of AnchorageLocation

Historic Weather in Anchorage — Graph

°F

Anchorage temperature yesterday

Maximum temperature yesterday: 68 °F (at 4:53 PM)
Minimum temperature yesterday: 46 °F (at 4:53 AM)
Average temperature yesterday: 58 °F

Past Weeks' High & Low Weather Summary

 TemperatureHumidityPressure
High68 °F (May 29, 4:53 PM)94% (May 25, 6:02 AM)30.37 "Hg (May 25, 6:02 AM)
Low41 °F (May 17, 4:53 AM)37% (May 29, 8:53 PM)29.78 "Hg (May 15, 4:53 PM)
Average53 °F64%30.15 "Hg
* Reported May 15 5:53 AM — May 30 5:53 AM, Anchorage, Weather by CustomWeather, © 2015

Note: Actual official high and low records may vary slightly from our data, if they occured in-between our weather recording intervals... More about our weather records

Advertising

Anchorage weather history for previous 24 hours

 ConditionsComfort  
Time TempWeatherWind HumidityBarometerVisibility
5:53 AM
Sat, May 30
51 °FSunny.No wind74%30.14 "Hg8 mi
4:53 AM51 °FClear.No wind71%30.14 "Hg9 mi
3:53 AM53 °FClear.5 mph64%30.14 "Hg10 mi
2:53 AM53 °FClear.5 mph66%30.15 "Hg10 mi
1:53 AM54 °FClear.3 mph64%30.16 "Hg9 mi
12:53 AM55 °FClear.No wind62%30.15 "Hg10 mi
11:53 PM
Fri, May 29
58 °FSunny.7 mph56%30.14 "Hg10 mi
10:53 PM61 °FSunny.5 mph41%30.14 "Hg10 mi
9:53 PM65 °FSunny.3 mph37%30.14 "Hg10 mi
8:53 PM67 °FSunny.3 mph37%30.14 "Hg10 mi
7:53 PM64 °FSunny.5 mph47%30.15 "Hg10 mi
6:53 PM66 °FSunny.8 mph47%30.15 "Hg10 mi
5:53 PM68 °FSunny.7 mph42%30.16 "Hg10 mi
4:53 PM68 °FSunny.8 mph42%30.17 "Hg10 mi
3:53 PM67 °FSunny.5 mph42%30.19 "Hg10 mi
2:53 PM65 °FSunny.No wind44%30.22 "Hg10 mi
1:53 PM62 °FSunny.6 mph48%30.24 "Hg9 mi
12:53 PM60 °FSunny.3 mph52%30.25 "Hg9 mi
11:53 AM58 °FSunny.5 mph58%30.26 "Hg9 mi
10:53 AM57 °FSunny.3 mph58%30.27 "Hg9 mi
9:53 AM56 °FSunny.6 mph62%30.29 "Hg9 mi
8:53 AM54 °FSunny.No wind64%30.29 "Hg10 mi
7:53 AM53 °FSunny.3 mph66%30.30 "Hg9 mi
6:53 AM51 °FSunny.No wind74%30.30 "Hg9 mi
Weather by CustomWeather, © 2015

See weather overviewHow to use our weather pages